Location: ????????
(55.6189°N, 38.3031°E)
Time: 17:01:50
(UTC+00:00)

Cosmos 990 Rocket - Pass Details

Date: 15 November 2019
Orbit: 746 x 770 km, 74.0° (Epoch: 11 December)

Event Time Altitude Azimuth Distance (km) Brightness Sun altitude
Rises 02:43:24 0° 200° (SSW) 3,194 7.1 -19.0°
Reaches altitude 10° 02:45:45 10° 198° (SSW) 2,276 6.3 -18.7°
Maximum altitude 02:50:54 75° 114° (ESE) 791 4.2 -17.9°
Drops below altitude 10° 02:56:07 10° 30° (NNE) 2,308 6.8 -17.2°
Sets 02:58:31 0° 29° (NNE) 3,242 7.5 -16.9°
